This is the latest recevied weather packets stored in our database for station/object DB0HOL-4. If no packets are shown the sender has not sent any weather packets the latest 10 day(s).
| Time | Temp. | Humidity | Pressure | Rain* | Wind** | Luminosity | Snow |
|---|---|---|---|---|---|---|---|
| 1788156156 | 59° F | 90% | 756.4 mmHg | 0 in | - | 320 W/m² | - |
| 1788154355 | 59° F | 89% | 756.1 mmHg | 0 in | - | 155 W/m² | - |
| 1788152556 | 59° F | 87% | 755.8 mmHg | 0 in | - | 51 W/m² | - |
| 1788150756 | 59° F | 86% | 755.6 mmHg | 0 in | - | 0 W/m² | - |
| 1788148956 | 59° F | 85% | 755.6 mmHg | 0 in | - | 0 W/m² | - |
| 1788147156 | 59° F | 86% | 755.6 mmHg | 0 in | - | 0 W/m² | - |
| 1788145444 | 59° F | 87% | 756.1 mmHg | 0 in | - | 0 W/m² | - |
| 1788145356 | 59° F | 87% | 756.1 mmHg | 0 in | - | 0 W/m² | - |
| 1788143556 | 59° F | 86% | 755.8 mmHg | 0 in | - | 0 W/m² | - |
| 1788141756 | 59° F | 86% | 756.4 mmHg | 0 in | - | 0 W/m² | - |
| 1788139956 | 60° F | 83% | 756.4 mmHg | 0 in | - | 0 W/m² | - |
| 1788138156 | 60° F | 85% | 756.9 mmHg | 0 in | - | 0 W/m² | - |
| 1788136356 | 59° F | 87% | 756.7 mmHg | 0 in | - | 0 W/m² | - |
| 1788134556 | 60° F | 85% | 756.9 mmHg | 0 in | - | 0 W/m² | - |
| 1788132755 | 61° F | 85% | 756.9 mmHg | 0 in | - | 0 W/m² | - |
| 1788130956 | 61° F | 85% | 757.1 mmHg | 0 in | - | 0 W/m² | - |
| 1788125555 | 62° F | 82% | 757.1 mmHg | 0 in | - | 0 W/m² | - |
| 1788123756 | 62° F | 84% | 757.4 mmHg | 0 in | - | 0 W/m² | - |
| 1788121956 | 64° F | 78% | 757.4 mmHg | 0 in | - | 0 W/m² | - |
| 1788120155 | 63° F | 79% | 757.6 mmHg | 0 in | - | 0 W/m² | - |
| 1788118356 | 64° F | 78% | 757.9 mmHg | 0 in | - | 0 W/m² | - |
| 1788116556 | 64° F | 78% | 757.9 mmHg | 0 in | - | 0 W/m² | - |
| 1788114756 | 64° F | 78% | 757.6 mmHg | 0 in | - | 0 W/m² | - |
| 1788112956 | 64° F | 77% | 757.4 mmHg | 0 in | - | 95 W/m² | - |
| 1788111155 | 65° F | 77% | 757.4 mmHg | 0 in | - | 342 W/m² | - |
* Rain latest hour (hover to see other rain measurements)
** Current wind speed in m/s (hover to see current wind gust speed)